This is the latest recevied weather packets stored in our database for station/object WC4PEM-9. If no packets are shown the sender has not sent any weather packets the latest 10 day(s).
| Time | Temp. | Humidity | Pressure | Rain* | Wind** | Luminosity | Snow |
|---|---|---|---|---|---|---|---|
| 1777488527 | 30° C | 55% | 1014.1 hPa | 0 mm | - | - | - |
| 1777488227 | 30° C | 56% | 1014.2 hPa | 0 mm | - | - | - |
| 1777487927 | 30° C | 57% | 1014.2 hPa | 0 mm | - | - | - |
| 1777487738 | 30° C | 56% | 1014.5 hPa | 0 mm | - | - | - |
| 1777487627 | 30° C | 56% | 1014.5 hPa | 0 mm | - | - | - |
| 1777487438 | 29.44° C | 57% | 1014.5 hPa | 0 mm | - | - | - |
| 1777487327 | 29.44° C | 57% | 1014.5 hPa | 0 mm | - | - | - |
| 1777487184 | 30° C | 56% | 1014.6 hPa | 0 mm | - | - | - |
| 1777487136 | 30° C | 56% | 1014.6 hPa | 0 mm | - | - | - |
| 1777487027 | 30° C | 56% | 1014.6 hPa | 0 mm | - | - | - |
| 1777486826 | 30° C | 55% | 1014.6 hPa | 0 mm | - | - | - |
| 1777486727 | 30° C | 55% | 1014.6 hPa | 0 mm | - | - | - |
| 1777486427 | 29.44° C | 57% | 1014.8 hPa | 0 mm | - | - | - |
| 1777486228 | 29.44° C | 56% | 1014.9 hPa | 0 mm | - | - | - |
| 1777486127 | 29.44° C | 56% | 1014.9 hPa | 0 mm | - | - | - |
| 1777485827 | 29.44° C | 58% | 1014.9 hPa | 0 mm | - | - | - |
| 1777485527 | 30° C | 59% | 1014.9 hPa | 0 mm | - | - | - |
| 1777485329 | 29.44° C | 59% | 1015.1 hPa | 0 mm | - | - | - |
| 1777485227 | 29.44° C | 59% | 1015.1 hPa | 0 mm | - | - | - |
| 1777484927 | 29.44° C | 57% | 1014.9 hPa | 0 mm | - | - | - |
| 1777484627 | 29.44° C | 57% | 1014.9 hPa | 0 mm | - | - | - |
| 1777484364 | 29.44° C | 57% | 1015.2 hPa | 0 mm | - | - | - |
| 1777484327 | 29.44° C | 57% | 1015.2 hPa | 0 mm | - | - | - |
| 1777484027 | 30° C | 59% | 1015.3 hPa | 0 mm | - | - | - |
| 1777483828 | 29.44° C | 62% | 1015.4 hPa | 0 mm | - | - | - |
* Rain latest hour (hover to see other rain measurements)
** Current wind speed in m/s (hover to see current wind gust speed)